Overview Statistics Trail Chart Weather Telemetry Raw packets
 

This is the latest recevied weather packets stored in our database for station/object WW6Q. If no packets are shown the sender has not sent any weather packets the latest 10 day(s).

<< 57 58 59 60 61 62 63 >>
Time Temp. Humidity Pressure Rain* Wind** Luminosity Snow
1788233745 22.78° C 95% 1014.6 hPa 0 mm - 0 W/m² -
1788233428 22.78° C 95% 1014.7 hPa 0 mm - 0 W/m² -
1788233126 23.33° C 95% 1014.7 hPa 0 mm - 0 W/m² -
1788232822 23.33° C 95% 1014.7 hPa 0 mm - 0 W/m² -
1788232517 23.33° C 95% 1014.7 hPa 0 mm - 0 W/m² -
1788232213 23.33° C 95% 1014.4 hPa 0 mm - 0 W/m² -
1788231913 23.33° C 93% 1014.6 hPa 0 mm - 0 W/m² -
1788231613 23.89° C 92% 1014.6 hPa 0 mm - 0 W/m² -
1788231307 23.89° C 91% 1014.7 hPa 0 mm - 0 W/m² -
1788231001 23.89° C 89% 1014.6 hPa 0 mm - 0 W/m² -
1788230696 23.89° C 89% 1014.8 hPa 0 mm - 0 W/m² -
1788230395 23.89° C 89% 1015 hPa 0 mm - 0 W/m² -
1788230095 23.89° C 89% 1015.1 hPa 0 mm - 0 W/m² -
1788229800 24.44° C 89% 1015.1 hPa 0 mm - 0 W/m² -
1788229486 24.44° C 88% 1015 hPa 0 mm - 0 W/m² -
1788229180 24.44° C 87% 1015 hPa 0 mm - 0 W/m² -
1788228876 25° C 87% 1015 hPa 0 mm - 0 W/m² -
1788228571 25° C 86% 1014.9 hPa 0 mm - 0 W/m² -
1788228266 25° C 87% 1014.7 hPa 0 mm - 0 W/m² -
1788227965 24.44° C 88% 1014.9 hPa 0 mm - 0 W/m² -
1788227662 24.44° C 88% 1014.9 hPa 0 mm - 0 W/m² -
1788227361 24.44° C 88% 1014.7 hPa 0 mm - 0 W/m² -
1788227058 24.44° C 88% 1014.6 hPa 0 mm - 0 W/m² -
1788226753 25° C 88% 1014.8 hPa 0 mm - 0 W/m² -
1788226448 25° C 88% 1015 hPa 0 mm - 0 W/m² -

* Rain latest hour (hover to see other rain measurements)
** Current wind speed in m/s (hover to see current wind gust speed)